GW1878 Weather Reports


time (UTC)temp
F
wind
direction
speed
knots
gust
knots
rain 1hr
in
rain 24hr
in
rain mn
in
humidity
%
barometer
mb
20260502212055 58 302 1.7 4.3 0.00 0.00 0.00 49 1028.3
20260502211550 58 96 0.0 0.0 0.00 0.00 0.00 49 1028.3
20260502211048 57 234 0.0 0.0 0.00 0.00 0.00 51 1028.5
20260502210545 58 271 0.0 0.0 0.00 0.00 0.00 50 1028.8
20260502210042 57 103 0.0 0.0 0.00 0.00 0.00 52 1028.8
20260502205538 55 300 0.0 0.0 0.00 0.00 0.00 53 1029.0
20260502205036 55 254 2.6 5.2 0.00 0.00 0.00 54 1029.1
20260502204532 54 264 2.6 4.3 0.00 0.00 0.00 55 1029.2
20260502204030 56 274 0.0 0.0 0.00 0.00 0.00 54 1029.1
20260502203527 55 227 0.0 0.0 0.00 0.00 0.00 54 1029.1
20260502203024 54 283 0.9 1.7 0.00 0.00 0.00 55 1029.2
20260502202520 53 5 2.6 2.6 0.00 0.00 0.00 56 1029.2
20260502202019 53 318 0.0 0.9 0.00 0.00 0.00 56 1029.2
20260502201514 53 279 0.0 0.0 0.00 0.00 0.00 56 1029.2
20260502201010 53 292 0.9 1.7 0.00 0.00 0.00 56 1029.2
20260502200507 54 284 2.6 4.3 0.00 0.00 0.00 55 1029.2
20260502200005 55 252 2.6 2.6 0.00 0.00 0.00 55 1029.1
20260502195502 53 290 6.1 7.0 0.00 0.00 0.00 56 1029.2
20260502194957 55 306 3.5 4.3 0.00 0.00 0.00 55 1029.2
20260502194455 53 209 0.9 1.7 0.00 0.00 0.00 57 1029.6
20260502193950 53 284 4.3 5.2 0.00 0.00 0.00 57 1029.5
20260502193448 52 224 1.7 1.7 0.00 0.00 0.00 58 1029.6
20260502192944 53 216 4.3 6.1 0.00 0.00 0.00 58 1029.4
20260502192441 53 268 0.0 0.0 0.00 0.00 0.00 57 1029.4
20260502191938 53 262 1.7 2.6 0.00 0.00 0.00 58 1029.4
20260502191435 52 298 1.7 2.6 0.00 0.00 0.00 59 1029.6
20260502190933 53 287 2.6 2.6 0.00 0.00 0.00 58 1029.6
20260502190430 54 316 1.7 1.7 0.00 0.00 0.00 59 1029.6
20260502185926 53 323 1.7 1.7 0.00 0.00 0.00 60 1029.7
20260502185421 52 49 0.9 0.9 0.00 0.00 0.00 62 1029.7
20260502184919 51 59 0.9 0.9 0.00 0.00 0.00 63 1030.0
20260502184414 50 53 0.9 0.9 0.00 0.00 0.00 64 1029.8
20260502183911 51 76 1.7 1.7 0.00 0.00 0.00 64 1030.1
20260502183407 50 96 0.9 0.9 0.00 0.00 0.00 66 1030.1
20260502182903 50 87 1.7 2.6 0.00 0.00 0.00 67 1030.2
20260502182358 50 88 2.6 2.6 0.00 0.00 0.00 67 1030.1
20260502181855 49 305 0.9 1.7 0.00 0.00 0.00 69 1030.1
20260502181353 49 276 2.6 2.6 0.00 0.00 0.00 70 1030.3
20260502180851 48 287 0.0 0.0 0.00 0.00 0.00 71 1030.2
20260502180348 48 310 0.9 0.9 0.00 0.00 0.00 72 1030.3
20260502170306 46 270 0.9 1.7 0.00 0.00 0.00 81 1030.6
20260502164255 45 274 0.9 1.7 0.00 0.00 0.00 83 1030.4
20260502163750 45 268 0.0 0.9 0.00 0.00 0.00 83 1030.3
20260502163247 45 274 0.0 0.0 0.00 0.00 0.00 83 1030.3
20260502162744 44 271 0.0 0.0 0.00 0.00 0.00 83 1030.3
20260502162240 44 229 0.0 0.0 0.00 0.00 0.00 83 1030.1
20260502161737 44 235 0.0 0.9 0.00 0.00 0.00 84 1030.3
20260502161233 44 252 0.0 0.0 0.00 0.00 0.00 84 1030.2
20260502160732 44 264 0.0 0.0 0.00 0.00 0.00 84 1030.3
20260502160231 44 262 1.7 1.7 0.00 0.00 0.00 84 1030.1
20260502152155 43 280 0.0 0.0 0.00 0.00 0.00 85 1029.7
20260502151652 43 270 2.6 2.6 0.00 0.00 0.00 85 1029.6
20260502151149 43 246 3.5 4.3 0.00 0.00 0.00 85 1029.6
20260502150647 44 271 5.2 7.0 0.00 0.00 0.00 85 1029.5
20260502150143 44 243 5.2 6.1 0.00 0.00 0.00 85 1029.4
20260502140106 43 305 0.0 0.0 0.00 0.00 0.00 85 1029.4
20260502130532 44 278 2.6 2.6 0.00 0.00 0.00 84 1028.4
20260502123515 43 338 0.0 0.0 0.00 0.00 0.00 83 1028.2
20260502123011 43 338 0.0 0.0 0.00 0.00 0.00 83 1028.1
20260502122508 43 338 0.0 0.0 0.00 0.00 0.00 83 1027.9
20260502122005 43 339 0.0 0.0 0.00 0.00 0.00 83 1027.9
20260502121502 43 339 0.0 0.0 0.00 0.00 0.00 82 1027.9
20260502121000 43 339 0.0 0.9 0.00 0.00 0.00 82 1028.1
20260502120456 43 339 0.0 0.9 0.00 0.00 0.00 82 1028.1
20260502115450 43 322 0.0 0.0 0.00 0.00 0.00 81 1028.1
20260502114946 43 319 0.0 0.0 0.00 0.00 0.00 81 1028.1
20260502114443 43 315 0.0 0.0 0.00 0.00 0.00 81 1027.9
20260502113941 43 314 0.0 0.0 0.00 0.00 0.00 81 1027.9
20260502113438 43 310 0.0 0.0 0.00 0.00 0.00 80 1027.8
20260502112937 44 304 0.0 0.0 0.00 0.00 0.00 80 1028.1
20260502112434 44 302 0.0 0.0 0.00 0.00 0.00 79 1027.8
20260502111931 44 288 2.6 2.6 0.00 0.00 0.00 79 1027.8
20260502111428 44 306 2.6 2.6 0.00 0.00 0.00 78 1027.6
20260502110926 45 274 0.0 0.0 0.00 0.00 0.00 77 1027.9
20260502110423 45 292 0.9 0.9 0.00 0.00 0.00 76 1027.7
20260502105920 45 324 2.6 2.6 0.00 0.00 0.00 76 1027.8
20260502105417 45 332 2.6 4.3 0.00 0.00 0.00 75 1027.7
20260502104916 45 333 0.9 1.7 0.00 0.00 0.00 75 1027.8
20260502104412 46 336 0.9 1.7 0.00 0.00 0.00 74 1027.6
20260502103909 46 351 0.0 0.0 0.00 0.00 0.00 73 1027.8
20260502103408 46 8 0.9 1.7 0.00 0.00 0.00 72 1027.5
20260502102904 46 25 0.0 0.0 0.00 0.00 0.00 72 1027.5
20260502102400 46 60 0.0 0.0 0.00 0.00 0.00 71 1027.5
20260502101858 46 61 0.0 0.0 0.00 0.00 0.00 72 1027.2
20260502101356 46 60 0.0 0.9 0.00 0.00 0.00 73 1027.1
20260502100854 46 59 0.0 0.0 0.00 0.00 0.00 73 1027.3
20260502100353 45 59 0.0 0.0 0.00 0.00 0.00 74 1027.2
20260502091327 46 85 0.0 0.0 0.00 0.00 0.00 75 1027.0
20260502090825 46 70 0.0 0.0 0.00 0.00 0.00 75 1026.9
20260502090321 45 65 0.9 0.9 0.00 0.00 0.00 75 1027.1
20260502071216 47 74 0.0 0.0 0.00 0.00 0.00 63 1026.4
20260502070715 47 33 0.9 1.7 0.00 0.00 0.00 63 1026.4
20260502070212 47 38 0.0 0.0 0.00 0.00 0.00 63 1026.4
20260502065710 47 43 0.0 0.0 0.00 0.00 0.00 63 1026.4
20260502065208 47 62 0.0 0.0 0.00 0.00 0.00 63 1026.6
20260502064706 47 58 0.0 0.0 0.00 0.00 0.00 62 1026.5
20260502064203 47 67 0.0 0.0 0.00 0.00 0.00 62 1026.3
20260502063701 47 109 0.9 1.7 0.00 0.00 0.00 62 1026.4
20260502063158 47 113 0.9 2.6 0.00 0.00 0.00 62 1026.4
20260502062655 47 113 0.9 2.6 0.00 0.00 0.00 62 1026.5
20260502062153 47 112 0.0 0.0 0.00 0.00 0.00 62 1026.6
20260502061651 47 86 0.0 0.0 0.00 0.00 0.00 62 1026.9
20260502061148 47 91 0.0 0.0 0.00 0.00 0.00 63 1026.7
20260502060648 48 106 0.0 0.0 0.00 0.00 0.00 63 1026.7
20260502060145 48 95 2.6 2.6 0.00 0.00 0.00 62 1026.6
20260502055643 48 110 0.0 0.0 0.00 0.23 0.23 62 1026.7
20260502055141 47 86 0.0 0.0 0.00 0.23 0.23 62 1027.1
20260502054640 48 70 0.0 0.0 0.00 0.23 0.23 62 1027.1
20260502054136 48 92 0.0 0.0 0.00 0.23 0.23 62 1027.1
20260502053634 48 99 0.0 0.0 0.00 0.23 0.23 61 1027.1
20260502053131 47 124 0.0 0.0 0.00 0.23 0.23 61 1027.0
20260502052629 47 110 0.0 0.0 0.00 0.23 0.23 61 1027.1
20260502052127 47 113 0.0 0.0 0.00 0.23 0.23 61 1026.7
20260502051625 47 109 0.0 0.0 0.00 0.23 0.23 61 1027.0
20260502051123 48 116 0.0 1.7 0.00 0.23 0.23 61 1026.9
20260502050619 48 102 0.0 0.9 0.00 0.23 0.23 61 1027.0
20260502050115 48 117 0.9 4.3 0.00 0.23 0.23 61 1026.7
20260502045612 47 96 0.0 0.9 0.00 0.23 0.23 61 1026.7
20260502045109 48 101 0.0 0.0 0.00 0.23 0.23 61 1026.9
20260502044605 48 71 0.0 0.0 0.00 0.23 0.23 61 1027.1
20260502044102 48 106 0.0 0.9 0.00 0.23 0.23 61 1027.1
20260502043600 48 84 0.0 0.0 0.00 0.23 0.23 60 1027.0
20260502043057 48 116 0.9 1.7 0.00 0.23 0.23 61 1026.6
20260502042551 47 94 0.0 0.0 0.00 0.23 0.23 61 1026.6
20260502042049 47 123 7.0 7.8 0.00 0.23 0.23 60 1026.4
20260502041546 48 100 5.2 7.8 0.00 0.23 0.23 60 1026.5
20260502041043 48 116 7.8 12.2 0.00 0.23 0.23 60 1026.3
20260502040539 47 73 1.7 4.3 0.00 0.23 0.23 60 1026.1
20260502040037 47 133 10.4 13.9 0.00 0.23 0.23 60 1025.9
20260502035532 47 79 5.2 7.8 0.00 0.23 0.23 60 1026.0
20260502035030 47 109 5.2 7.8 0.00 0.23 0.23 60 1026.0
20260502034528 48 98 4.3 7.0 0.00 0.23 0.23 60 1026.0
20260502034026 47 92 1.7 4.3 0.00 0.23 0.23 61 1025.9
20260502033524 47 92 1.7 4.3 0.00 0.23 0.23 61 1025.8
20260502033021 47 116 5.2 7.8 0.00 0.23 0.23 61 1025.7
20260502032517 47 126 1.7 2.6 0.00 0.23 0.23 61 1025.9
20260502032014 47 105 4.3 7.8 0.00 0.23 0.23 61 1025.4
20260502031512 47 125 7.8 12.2 0.00 0.23 0.23 61 1025.7
20260502031010 47 108 7.0 9.6 0.00 0.23 0.23 61 1025.3
20260502030508 47 101 6.1 8.7 0.00 0.23 0.23 61 1025.4
20260502030006 47 83 6.1 11.3 0.00 0.23 0.23 61 1025.2
20260502025503 48 133 0.0 0.9 0.00 0.23 0.23 61 1025.1
20260502025001 47 99 0.0 0.9 0.00 0.23 0.23 61 1024.8
20260502024458 47 106 7.0 12.2 0.00 0.23 0.23 61 1024.9
20260502023956 47 60 0.0 0.9 0.00 0.23 0.23 61 1024.8
20260502023453 47 101 1.7 2.6 0.00 0.23 0.23 61 1024.6
20260502022951 47 118 0.9 1.7 0.00 0.23 0.23 61 1024.6
20260502022447 47 92 5.2 7.8 0.00 0.23 0.23 61 1024.6
20260502021944 47 83 0.9 2.6 0.00 0.23 0.23 61 1024.5
20260502021442 47 102 4.3 6.1 0.00 0.23 0.23 61 1024.3
20260502020938 47 81 4.3 9.6 0.00 0.23 0.23 60 1024.2
20260502020437 48 110 8.7 13.9 0.00 0.23 0.23 60 1024.2
20260502015933 48 99 7.0 8.7 0.00 0.23 0.23 60 1024.2
20260502015431 48 62 0.9 1.7 0.00 0.23 0.23 60 1024.1
20260502014927 48 121 4.3 7.8 0.00 0.23 0.23 60 1024.1
20260502014424 48 83 6.1 8.7 0.00 0.23 0.23 60 1024.1
20260502013920 48 80 6.1 11.3 0.00 0.23 0.23 60 1024.0
20260502013416 48 98 6.1 13.0 0.00 0.23 0.23 60 1023.9
20260502012913 48 128 7.8 11.3 0.00 0.23 0.23 60 1024.1
20260502012411 49 107 7.8 11.3 0.00 0.23 0.23 59 1023.9
20260502011908 49 90 6.1 8.7 0.00 0.23 0.23 59 1023.7
20260502011404 49 92 3.5 5.2 0.00 0.23 0.23 59 1023.7
20260502010901 50 108 1.7 4.3 0.00 0.23 0.23 59 1023.5
20260502010357 50 101 1.7 4.3 0.00 0.23 0.23 59 1023.6
20260502005854 50 107 3.5 6.1 0.00 0.23 0.23 58 1023.7
20260502005352 50 92 5.2 7.0 0.00 0.23 0.23 58 1023.4
20260502004849 50 126 8.7 11.3 0.00 0.23 0.23 58 1023.4
20260502004345 50 95 7.0 9.6 0.00 0.23 0.23 58 1023.5
20260502003843 50 113 9.6 14.8 0.00 0.23 0.23 57 1023.5
20260502003340 50 94 2.6 6.1 0.00 0.23 0.23 56 1023.1
20260502002836 51 55 8.7 13.0 0.00 0.23 0.23 56 1023.1
20260502002334 51 104 11.3 19.1 0.00 0.23 0.23 56 1023.4
20260502001831 51 107 9.6 13.9 0.00 0.23 0.23 55 1023.1
20260502001329 51 71 12.2 17.4 0.00 0.23 0.23 55 1023.0
20260502000826 52 120 9.6 11.3 0.00 0.23 0.23 54 1023.0
20260502000325 52 102 10.4 13.0 0.00 0.23 0.23 54 1022.9
20260501235820 52 96 6.1 12.2 0.00 0.23 0.23 54 1022.7
20260501235316 52 109 10.4 12.2 0.00 0.23 0.23 54 1022.8
20260501234811 52 106 10.4 15.6 0.00 0.23 0.23 54 1022.8
20260501234309 53 104 4.3 7.8 0.00 0.23 0.23 54 1022.7
20260501233807 52 103 12.2 14.8 0.00 0.23 0.23 54 1022.7
20260501233304 53 115 13.9 20.9 0.00 0.23 0.23 54 1022.4
20260501232759 53 92 10.4 14.8 0.00 0.23 0.23 53 1022.4
20260501232256 54 116 7.8 13.9 0.00 0.23 0.23 52 1022.2
20260501231754 54 69 1.7 5.2 0.00 0.23 0.23 54 1022.1
20260501231252 54 102 6.1 11.3 0.00 0.23 0.23 54 1022.2
20260501230750 53 71 7.8 13.9 0.00 0.23 0.23 53 1022.1
20260501230249 53 130 9.6 13.0 0.00 0.23 0.23 54 1022.1
20260501225746 53 112 14.8 18.2 0.00 0.23 0.23 54 1022.1
20260501225243 54 68 12.2 14.8 0.00 0.23 0.23 53 1022.1
20260501224739 55 68 1.7 5.2 0.00 0.23 0.23 52 1021.9
20260501224237 54 143 7.8 11.3 0.00 0.23 0.23 53 1022.2
20260501223732 54 114 12.2 18.2 0.00 0.23 0.23 54 1021.9
20260501223229 54 117 11.3 14.8 0.00 0.23 0.23 53 1022.1
20260501222725 54 88 8.7 13.9 0.00 0.23 0.23 53 1021.7
20260501222223 54 116 1.7 4.3 0.00 0.23 0.23 55 1022.1
20260501221720 54 109 14.8 19.1 0.00 0.23 0.23 55 1021.6
20260501221217 54 121 8.7 13.0 0.00 0.23 0.23 55 1021.8
20260501220714 55 70 6.1 11.3 0.00 0.23 0.23 52 1021.7
20260501220211 56 110 13.0 15.6 0.00 0.23 0.23 51 1021.7
20260501215708 55 131 8.7 13.9 0.00 0.23 0.23 51 1021.6
20260501215203 55 107 5.2 13.0 0.00 0.23 0.23 52 1021.7
20260501214658 55 106 14.8 19.1 0.00 0.23 0.23 52 1021.9
20260501214154 55 84 3.5 7.0 0.00 0.23 0.23 53 1021.9
20260501213652 55 128 5.2 7.0 0.00 0.23 0.23 54 1021.9
20260501213147 55 37 7.0 8.7 0.00 0.23 0.23 53 1022.1
20260501212644 55 62 7.8 9.6 0.00 0.23 0.23 52 1021.8